Location: Devore Heights
(34.2372°N, 117.4156°W)
Time: 08:55:42
(UTC+00:00)

Vanguard 1 Rocket - Pass Details

Date: 14 September 2024
Orbit: 650 x 4218 km, 34.3° (Epoch: 09 October)

Event Time Altitude Azimuth Distance (km) Brightness Sun altitude
Rises 18:38:53 0° 290° (WNW) 8,228 12.0 55.2°
Reaches altitude 10° 18:44:56 10° 284° (WNW) 7,366 11.9 55.8°
Maximum altitude 19:07:39 41° 225° (SW) 4,867 12.0 57.6°
Drops below altitude 10° 19:24:48 10° 162° (SSE) 5,610 12.1 58.4°
Sets 19:28:43 0° 154° (SSE) 6,193 12.1 58.5°
